FW0320 Weather Reports


time (UTC)temp
C
wind
direction
speed
KPH
gust
KPH
rain 1hr
cm
rain 24hr
cm
rain mn
cm
humidity
%
barometer
mb
20260905234549 17 253 0.0 0.0 0.00 0.05 0.00 86 1013.8
20260905231541 17 253 0.0 0.0 0.00 0.05 0.00 85 1013.5
20260905230041 17 253 0.0 0.0 0.00 0.05 0.00 85 1013.4
20260905224538 17 253 0.0 3.2 0.00 0.05 0.00 85 1013.2
20260905221537 17 252 0.0 1.6 0.00 0.05 0.00 84 1013.2
20260905220039 17 252 0.0 3.2 0.00 0.05 0.00 84 1012.9
20260905214534 17 247 1.6 4.8 0.00 0.05 0.00 84 1012.7
20260905211556 17 275 1.6 3.2 0.00 0.05 0.00 83 1012.3
20260905210033 17 263 0.0 4.8 0.00 0.05 0.00 84 1012.3
20260905204531 18 306 0.0 4.8 0.00 0.05 0.00 84 1012.4
20260905201534 20 337 1.6 4.8 0.00 0.05 0.00 76 1012.4
20260905200032 21 137 1.6 8.0 0.00 0.05 0.00 69 1011.9
20260905194526 21 247 1.6 4.8 0.00 0.05 0.00 71 1011.5
20260905191527 21 271 0.0 3.2 0.00 0.05 0.00 72 1011.4
20260905190024 21 271 0.0 6.4 0.00 0.05 0.00 71 1011.4
20260905184524 21 211 0.0 6.4 0.00 0.05 0.00 71 1011.4
20260905181524 21 269 3.2 9.7 0.00 0.08 0.00 72 1011.5
20260905180023 22 321 4.8 9.7 0.00 0.08 0.00 69 1011.4
20260905174524 21 336 1.6 6.4 0.00 0.08 0.00 69 1011.4
20260905171523 22 274 0.0 4.8 0.00 0.08 0.00 70 1011.1
20260905170023 22 305 0.0 4.8 0.00 0.08 0.00 68 1011.2
20260905164523 22 325 0.0 6.4 0.00 0.08 0.00 68 1011.2
20260905161517 21 312 0.0 4.8 0.00 0.08 0.00 74 1011.2
20260905160017 21 302 1.6 6.4 0.00 0.08 0.00 72 1011.2
20260905154513 20 323 0.0 3.2 0.00 0.08 0.00 77 1011.4
20260905151512 20 319 0.0 0.0 0.00 0.08 0.00 79 1011.3
20260905150011 20 318 0.0 4.8 0.00 0.08 0.00 77 1011.3
20260905144511 20 329 0.0 4.8 0.00 0.08 0.00 75 1011.5
20260905141520 19 206 0.0 3.2 0.00 0.08 0.00 80 1011.3
20260905140002 19 214 0.0 3.2 0.00 0.08 0.00 83 1011.2
20260905134602 18 211 0.0 1.6 0.00 0.08 0.00 82 1011.1
20260905131601 18 209 0.0 3.2 0.00 0.08 0.00 85 1010.9
20260905130053 18 141 0.0 3.2 0.00 0.08 0.00 84 1010.8
20260905124552 18 173 0.0 3.2 0.00 0.08 0.00 85 1010.7
20260905121548 17 143 0.0 0.0 0.00 0.08 0.00 87 1010.2
20260905120147 17 143 0.0 0.0 0.00 0.08 0.00 86 1010.2
20260905114542 17 116 0.0 3.2 0.00 0.08 0.00 88 1010.1
20260905111541 16 116 0.0 3.2 0.05 0.10 0.08 90 1009.9
20260905110047 16 116 0.0 1.6 0.05 0.10 0.08 90 1009.9
20260905104539 15 116 0.0 1.6 0.05 0.10 0.08 90 1009.8
20260905101544 15 116 0.0 0.0 0.00 0.05 0.03 89 1009.7
20260905100035 16 116 0.0 0.0 0.00 0.05 0.03 89 1009.6
20260905094536 16 116 0.0 0.0 0.00 0.05 0.03 89 1009.6
20260905091535 15 116 0.0 0.0 0.00 0.05 0.03 89 1009.3
20260905090035 15 116 0.0 0.0 0.00 0.05 0.03 89 1009.3
20260905084536 15 116 0.0 0.0 0.00 0.05 0.03 88 1009.1
20260905081534 16 116 0.0 0.0 0.00 0.05 0.03 88 1009.2
20260905080032 16 116 0.0 1.6 0.00 0.05 0.03 88 1009.1
20260905074534 16 115 0.0 1.6 0.00 0.05 0.03 87 1009.1
20260905071531 16 115 0.0 0.0 0.00 0.05 0.03 86 1009.4
20260905070030 16 115 0.0 0.0 0.00 0.05 0.03 86 1009.3
20260905064529 16 115 0.0 0.0 0.00 0.05 0.03 86 1009.5
20260905061527 16 115 0.0 1.6 0.00 0.05 0.03 86 1009.7
20260905060027 16 115 0.0 0.0 0.00 0.05 0.03 86 1009.9
20260905054532 16 115 0.0 1.6 0.00 0.05 0.03 87 1009.8
20260905051527 16 115 0.0 0.0 0.00 0.05 0.03 86 1009.8
20260905050026 16 115 0.0 0.0 0.00 0.05 0.03 86 1010.0
20260905044527 16 115 0.0 0.0 0.00 0.05 0.03 86 1009.8
20260905041522 16 115 0.0 0.0 0.00 0.05 0.03 85 1009.9
20260905040031 17 115 0.0 0.0 0.00 0.05 0.03 83 1009.9
20260905034527 17 115 0.0 0.0 0.00 0.05 0.03 84 1009.8
20260905031519 17 115 0.0 0.0 0.00 0.05 0.03 84 1009.9
20260905030018 17 115 0.0 0.0 0.00 0.05 0.03 84 1010.0
20260905024518 17 115 0.0 0.0 0.00 0.05 0.03 83 1010.0
20260905021516 17 115 0.0 0.0 0.00 0.05 0.03 82 1010.2
20260905020021 18 115 0.0 0.0 0.00 0.05 0.03 82 1010.2
20260905014514 18 115 0.0 0.0 0.00 0.05 0.03 80 1010.4
20260905011515 18 115 0.0 0.0 0.00 0.05 0.03 79 1010.5
20260905010017 19 115 0.0 0.0 0.00 0.05 0.03 77 1010.4
20260905004513 19 115 0.0 0.0 0.00 0.05 0.03 78 1010.4
20260905001513 20 115 0.0 0.0 0.00 0.05 0.03 75 1010.2
20260905000015 20 115 0.0 1.6 0.00 0.05 0.03 74 1010.1